Parkersburg, WV

1:07 PM EST on November 20, 2017 (GMT -0500)
Wood County Wilson

Weather History for KPKB - February, 2013

Change the Weather History Date:

Monday, February 4, 2013

  Actual Average Record
Temperature  
Mean Temperature 26 °F 33 °F  
Max Temperature 34 °F 41 °F 70 °F (1962)
Min Temperature 17 °F 24 °F -10 °F (1966)
Degree Days  
Heating Degree Days 39 32  
Month to date heating degree days 172 130  
Since 1 July heating degree days 3013 3075  
Cooling Degree Days 0 0  
Month to date cooling degree days 0 0  
Year to date cooling degree days 0 0  
Moisture  
Dew Point 24 °F    
Average Humidity 77    
Maximum Humidity 96    
Minimum Humidity 58    
Precipitation  
Precipitation 0.17 in 0.10 in 0.40 in (2003)
Month to date precipitation 0.26 0.40  
Year to date precipitation 3.64 3.35  
Sea Level Pressure  
Sea Level Pressure 29.96 in    
Wind  
Wind Speed 5 mph (South)    
Max Wind Speed 13 mph    
Max Gust Speed 17 mph    
Visibility 4 miles    
Events Fog , Rain , Snow    
T = Trace of Precipitation, MM = Missing Value Source: NWS Daily Summary

Daily Weather History Graph

Daily Weather History Graph

Search for Another Location

Airport or City:

Trip Planner

Search our weather history database for the weather conditions in past years. The results will help you decide how hot, cold, wet, or windy it might be!

Date:

Astronomy

Feb. 04, 2013 Rise Set
Actual Time 7:29 AM EST 5:50 PM EST
Civil Twilight 7:01 AM EST 6:18 PM EST
Nautical Twilight 6:29 AM EST 6:50 PM EST
Astronomical Twilight 5:58 AM EST 7:21 PM EST
Moon 2:03 AM EST (2/4) 12:13 PM EST (2/4)
Length of Visible Light 11h 16m
Length of Day
10h 20m
Last Quarter, 37% of the Moon is Illuminated
Feb 4
Last Quarter
Feb 10
New
Feb 17
First Quarter
Feb 25
Full
Mar 4
Last Quarter

Hourly Weather History & Observations

Time (EST) Temp. Windchill Dew Point Humidity Pressure Visibility Wind Dir Wind Speed Gust Speed Precip Events Conditions
12:53 AM 23.0 °F 13.9 °F 15.1 °F 72% 30.14 in 10.0 mi SW 8.1 mph - 0.00 in   Overcast
1:53 AM 21.9 °F 12.5 °F 12.9 °F 68% 30.15 in 10.0 mi West 8.1 mph - N/A   Scattered Clouds
6:53 AM 19.0 °F - 12.0 °F 74% 30.16 in 8.0 mi Calm Calm - N/A   Overcast
7:53 AM 19.9 °F 14.9 °F 12.9 °F 74% 30.15 in 8.0 mi SSE 3.5 mph - N/A   Overcast
8:53 AM 21.9 °F 14.5 °F 15.1 °F 75% 30.14 in 8.0 mi SSE 5.8 mph - N/A   Overcast
9:53 AM 24.1 °F 13.7 °F 16.0 °F 71% 30.11 in 9.0 mi SSE 10.4 mph - N/A   Overcast
10:53 AM 26.1 °F 18.4 °F 17.1 °F 69% 30.08 in 10.0 mi SSE 6.9 mph - N/A   Overcast
11:53 AM 27.0 °F 18.7 °F 17.1 °F 66% 30.05 in 10.0 mi South 8.1 mph - N/A   Mostly Cloudy
12:53 PM 28.9 °F 22.8 °F 17.1 °F 61% 30.03 in 10.0 mi SSW 5.8 mph - N/A   Overcast
1:53 PM 30.0 °F 26.5 °F 18.0 °F 61% 29.98 in 10.0 mi South 3.5 mph - N/A   Overcast
2:53 PM 30.0 °F 24.1 °F 21.0 °F 69% 29.96 in 2.5 mi SSE 5.8 mph - 0.00 in Snow Light Snow
3:07 PM 30.2 °F 25.4 °F 21.2 °F 69% 29.93 in 3.0 mi SE 4.6 mph - 0.00 in   Haze
3:21 PM 30.2 °F 24.3 °F 21.2 °F 69% 29.92 in 1.8 mi SSE 5.8 mph - 0.00 in Snow Light Snow
3:36 PM 30.2 °F 25.4 °F 23.0 °F 75% 29.91 in 2.5 mi South 4.6 mph - 0.00 in Snow Light Snow
3:53 PM 28.9 °F 25.2 °F 24.1 °F 82% 29.94 in 4.0 mi SE 3.5 mph - 0.00 in Snow Light Snow
4:06 PM 30.2 °F 26.7 °F 24.8 °F 80% 29.90 in 1.8 mi South 3.5 mph - 0.00 in Snow Light Snow
4:16 PM 28.4 °F 23.3 °F 24.8 °F 86% 29.90 in 0.8 mi SSE 4.6 mph - 0.00 in Snow Light Snow
4:29 PM 28.4 °F 24.6 °F 24.8 °F 86% 29.90 in 1.0 mi SSE 3.5 mph - 0.00 in Snow Light Snow
4:37 PM 28.4 °F 23.3 °F 24.8 °F 86% 29.90 in 0.8 mi SSE 4.6 mph - 0.01 in Snow Light Snow
4:53 PM 28.9 °F 25.2 °F 26.1 °F 89% 29.92 in 0.5 mi SSE 3.5 mph - 0.02 in Fog , Snow Light Snow
5:10 PM 28.4 °F - 26.6 °F 93% 29.89 in 1.5 mi Calm Calm - 0.00 in Snow Light Snow
5:30 PM 28.4 °F - 26.6 °F 93% 29.89 in 0.5 mi Calm Calm - 0.01 in Fog , Snow Snow
5:40 PM 28.4 °F - 26.6 °F 93% 29.89 in 0.2 mi Calm Calm - 0.02 in Fog , Snow Snow
5:53 PM 28.9 °F - 27.0 °F 92% 29.92 in 0.2 mi Calm Calm - 0.04 in Fog , Snow Snow
6:01 PM 28.4 °F - 26.6 °F 93% 29.89 in 0.2 mi Calm Calm - 0.01 in Fog , Snow Snow
6:27 PM 28.4 °F - 26.6 °F 93% 29.90 in 0.8 mi Calm Calm - 0.04 in Snow Light Snow
6:53 PM 28.9 °F - 27.0 °F 92% 29.93 in 1.0 mi Calm Calm - 0.07 in Snow Light Snow
7:00 PM 28.4 °F - 26.6 °F 93% 29.90 in 1.0 mi Calm Calm - 0.00 in Snow Light Snow
7:33 PM 30.2 °F - 28.4 °F 93% 29.90 in 1.8 mi Calm Calm - 0.02 in Snow Light Snow
7:53 PM 30.0 °F 26.5 °F 28.0 °F 92% 29.93 in 1.2 mi SSE 3.5 mph - 0.03 in Snow Light Snow
8:45 PM 30.2 °F - 28.4 °F 93% 29.90 in 3.0 mi Calm Calm - 0.01 in   Overcast
8:53 PM 30.9 °F 26.2 °F 28.9 °F 92% 29.93 in 2.5 mi SSE 4.6 mph - 0.01 in   Overcast
9:05 PM 30.2 °F 26.7 °F 28.4 °F 93% 29.90 in 1.8 mi SSE 3.5 mph - 0.00 in Rain Light Freezing Rain
9:51 PM 33.8 °F 27.7 °F 30.2 °F 87% 29.89 in 2.0 mi South 6.9 mph - 0.00 in   Overcast
9:53 PM 33.1 °F 25.5 °F 30.9 °F 92% 29.92 in 3.0 mi South 9.2 mph - 0.00 in   Overcast
10:53 PM 33.1 °F 28.7 °F 32.0 °F 96% 29.92 in 8.0 mi SSW 4.6 mph - N/A   Overcast
11:53 PM 34.0 °F 31.0 °F 32.0 °F 92% 29.91 in 8.0 mi SSW 3.5 mph - N/A   Overcast